User: anonymous   Login
Location: Unspecified
(0.0000°N, 0.0000°E)
Time: 13:36:24
(UTC+02:00)
Language:

ARIANE DEB (SPELDA) - Orbit

View from above orbital plane
View from above orbital plane
View from above satellite
View from above satellite

Ground track
Ground track

The orbit data is extracted from the following two-line orbital elements,

1 27402U 02015D   16149.67180352  .00001174  00000-0  77004-3 0  9990
2 27402   3.6997 296.2069 7098487 336.4051   2.7718  2.48089058124499
Epoch (UTC): 28 May 2016 16:07:23
Eccentricity: 0.7098487
inclination: 3.6997°
perigee height: 310 km
apogee height: 33033 km
right ascension of ascending node: 296.2069°
argument of perigee: 336.4051°
revolutions per day: 2.48089058
mean anomaly at epoch: 2.7718°
orbit number at epoch: 12449

The dashed part of the orbit path shows where the satellite is in the earth's shadow,  

DLR